STARLINK-1422, 45696

Orbit data source: Space-Track

STARLINK-1422, 45696 is a payload satellite owned by SpaceX/Seattle (US) in LEO that was launched on Thu, 04 Jun 2020 UTC via an FALCON 9 launch vehicle from the Air Force Eastern Test Range (AFETR). Payload-class satellites include a variety of spacecraft equipped with specific instruments for various scientific and technological missions. These include communications satellites like Starlink; space stations such as the ISS; scientific satellites like the Hubble; Earth observation satellites from companies like Planet Labs, Umbra, and HawkEye 360; GPS; miniature CubeSats for education and research; and military/defense satellites.

Loading next visibility...
Identifier
45696, 2020-035AR
Orbit
LEO
Country
Flag of USUS
Related business
Manufacturer
SpaceX/Seattle
Mission
Operational Commercial Communications
Bus & Motor
STARLINK, Unknown motor
Mass
260 kg wet, ~248 kg dry
Launch date (UTC)
2020-06-04 (5 years ago)
Launch vehicle
FALCON 9
Launch site
Air Force Eastern Test Range (AFETR)
Object type
Payload
Rocket body
Debris
Shape & HBR
Box + 1 Pan, 10.1 m
Radar Cross Section
13.562 m², Large (>1 m²)

Expand to show TLE details & history
Last TLE update: 16 hours ago

TLE from 16 hours ago
0 STARLINK-1422
1 45696U 20035AR  25287.46623813  .00000188  00000-0  31526-4 0  9995
2 45696  53.0553 353.0435 0001341  80.7718 279.3422 15.06387437296826
Epoch: 2025-10-14T11:11Z
TLE epoch observation values (Epoch: 2025-10-14T11:11:22.974Z)
Latitude
-0.00007°
Longitude
161.94346°
Altitude
547.979 km
Speed
7.589 km/s
True Right ascension
23h 32m 10s
True Declination
0° 00' 00"
Sunlit
Object was in full shadow at epoch
Visualization orbit readout
Latitude
Unknown
Longitude
Unknown
Altitude
Unknown
Speed
Unknown
Apparent Right ascension
Unknown
Apparent Declination
Unknown
Sunlit
N/A
Visualization observer readout
Local Sidereal Time
22:03:08
Azimuth
Unknown
Elevation
Unknown
Doppler factor
Unknown
Orbital elements
Apogee altitude
548.449 km
Perigee altitude
546.592 km
Semi-major axis
6,925.658 km
Eccentricity
0.00013
Inclination
53.0553°
RAAN
353.0435°
Arg. of periapsis
80.7718°
True anomaly
279.32704°
Mean anomaly
279.3422°
Eccentric anomaly
279.33462°
Mean motion
3.76575 °/min
Orbital period
95.6 mins
BSTAR
0.000031526
Loading maneuver chart data...
Computing Atmospheric mass density...
Loading historical data...
Loading historical data...
Loading historical data...
Loading historical data...
Loading historical data...
Loading historical data...
Loading historical data...

Documentation

Showing up to 5 results
|